TBA9815 ZULS-ZBAA

Flight info

Callsign TBA9815
Flight time 3h 12m
Altitude 35100
Route LXA W500 TAPUN Z3 YUS Z1 XNN H15 DNC W211 ZWX W219 YHD W217 VIKON W72 DUDIL W69 GUVBA
Aircraft A319/M-SDE2E3FGILORWXY/LB1D1

Departure

Time 2026-04-26 02:32
Airport Lhasa Gonggar International Airport (ZULS)

Arrival

Time 2026-04-26 05:44
Airport Beijing Capital International Airport (ZBAA)
Time Latitude Longitude Altitude Speed Heading
2026-04-26 02:32 29.30129 91.19179 16961 ft 331 kts 94°
2026-04-26 02:32 29.29948 91.21820 17551 ft 335 kts 94°
2026-04-26 02:32 29.29758 91.24497 18135 ft 339 kts 94°
2026-04-26 02:33 29.29563 91.27168 18669 ft 343 kts 94°
2026-04-26 02:33 29.29360 91.29907 19184 ft 347 kts 94°
2026-04-26 02:33 29.29151 91.32671 19724 ft 350 kts 94°
2026-04-26 02:33 29.28941 91.35455 20265 ft 352 kts 94°
2026-04-26 02:34 29.28730 91.38259 20802 ft 355 kts 94°
2026-04-26 02:34 29.28520 91.41086 21329 ft 358 kts 94°
2026-04-26 02:34 29.28308 91.43932 21864 ft 360 kts 94°
2026-04-26 02:34 29.28096 91.46798 22386 ft 363 kts 94°
2026-04-26 02:35 29.27880 91.49689 22906 ft 365 kts 94°
2026-04-26 02:35 29.27658 91.52597 23425 ft 368 kts 94°
2026-04-26 02:35 29.27415 91.55532 23883 ft 372 kts 95°
2026-04-26 02:35 29.27161 91.58488 24302 ft 375 kts 95°
2026-04-26 02:36 29.26901 91.61471 24736 ft 378 kts 95°
2026-04-26 02:36 29.26639 91.64475 25156 ft 381 kts 95°
2026-04-26 02:36 29.26376 91.67503 25578 ft 384 kts 95°
2026-04-26 02:36 29.26111 91.70555 26021 ft 386 kts 95°
2026-04-26 02:37 29.25843 91.73626 26451 ft 389 kts 95°
2026-04-26 02:37 29.25575 91.76722 26879 ft 392 kts 95°
2026-04-26 02:37 29.25573 91.79882 27044 ft 403 kts 83°
2026-04-26 02:37 29.26090 91.83076 27175 ft 414 kts 73°
2026-04-26 02:38 29.27091 91.86202 27304 ft 423 kts 64°
2026-04-26 02:38 29.28561 91.89161 27444 ft 432 kts 54°
2026-04-26 02:38 29.30493 91.91831 27564 ft 440 kts 43°
2026-04-26 02:38 29.32860 91.94092 27691 ft 447 kts 33°
2026-04-26 02:39 29.35513 91.96016 27816 ft 455 kts 31°
2026-04-26 02:39 29.38227 91.97948 27941 ft 463 kts 31°
2026-04-26 02:39 29.40979 91.99904 28173 ft 468 kts 31°
2026-04-26 02:39 29.43750 92.01877 28474 ft 471 kts 31°
2026-04-26 02:40 29.46536 92.03868 28791 ft 473 kts 31°
2026-04-26 02:40 29.49336 92.05876 29097 ft 476 kts 31°
2026-04-26 02:40 29.52148 92.07897 29404 ft 478 kts 31°
2026-04-26 02:40 29.54969 92.09929 29767 ft 479 kts 31°
2026-04-26 02:41 29.57789 92.11961 30184 ft 479 kts 31°
2026-04-26 02:41 29.60611 92.13996 30562 ft 478 kts 30°
2026-04-26 02:41 29.63387 92.15998 30923 ft 478 kts 30°
2026-04-26 02:41 29.66207 92.18029 31279 ft 478 kts 30°
2026-04-26 02:42 29.69020 92.20053 31630 ft 477 kts 30°
2026-04-26 02:42 29.71833 92.22079 31984 ft 477 kts 29°
2026-04-26 02:42 29.74641 92.24105 32343 ft 476 kts 29°
2026-04-26 02:42 29.77446 92.26130 32721 ft 476 kts 29°
2026-04-26 02:43 29.83053 92.30178 33431 ft 475 kts 29°
2026-04-26 02:43 29.85852 92.32198 33780 ft 475 kts 29°
2026-04-26 02:43 29.88650 92.34223 34117 ft 475 kts 29°
2026-04-26 02:44 29.91443 92.36251 34434 ft 474 kts 28°
2026-04-26 02:44 29.94237 92.38283 34726 ft 475 kts 28°
2026-04-26 02:44 29.97016 92.40343 34984 ft 477 kts 32°
2026-04-26 02:44 29.99601 92.42767 35156 ft 482 kts 40°
2026-04-26 02:45 30.01848 92.45661 35210 ft 487 kts 51°
2026-04-26 02:45 30.03666 92.48968 35212 ft 490 kts 61°
2026-04-26 02:45 30.06134 92.56325 35208 ft 493 kts 69°
2026-04-26 02:46 30.08444 92.63768 35216 ft 493 kts 68°
2026-04-26 02:46 30.10827 92.71197 35210 ft 493 kts 68°
2026-04-26 02:47 30.13195 92.78601 35212 ft 491 kts 68°
2026-04-26 02:47 30.15539 92.86015 35214 ft 491 kts 69°
2026-04-26 02:48 30.17864 92.93440 35219 ft 491 kts 69°
2026-04-26 02:48 30.20186 93.00865 35220 ft 491 kts 69°
2026-04-26 02:49 30.22511 93.08287 35221 ft 491 kts 69°
2026-04-26 02:49 30.24838 93.15704 35228 ft 491 kts 69°
2026-04-26 02:50 30.27155 93.23132 35243 ft 491 kts 69°
2026-04-26 02:50 30.29462 93.30567 35235 ft 490 kts 69°
2026-04-26 02:51 30.31765 93.37996 35252 ft 491 kts 69°
2026-04-26 02:51 30.34069 93.45432 35265 ft 491 kts 69°
2026-04-26 02:52 30.36370 93.52862 35290 ft 490 kts 69°
2026-04-26 02:52 30.39080 93.60068 35287 ft 486 kts 56°
2026-04-26 02:53 30.43213 93.66180 35265 ft 481 kts 46°
2026-04-26 02:53 30.47595 93.72047 35258 ft 482 kts 46°
2026-04-26 02:54 30.51979 93.77928 35262 ft 482 kts 46°
2026-04-26 02:54 30.56329 93.83779 35284 ft 482 kts 46°
2026-04-26 02:55 30.60707 93.89675 35281 ft 483 kts 46°
2026-04-26 02:55 30.65091 93.95571 35287 ft 481 kts 46°
2026-04-26 02:56 30.69466 94.01464 35280 ft 482 kts 46°
2026-04-26 02:56 30.73837 94.07369 35271 ft 482 kts 46°
2026-04-26 02:57 30.78202 94.13286 35261 ft 482 kts 46°
2026-04-26 02:57 30.82568 94.19207 35240 ft 482 kts 46°
2026-04-26 02:58 30.86932 94.25128 35236 ft 482 kts 46°
2026-04-26 02:58 30.91302 94.31064 35214 ft 483 kts 46°
2026-04-26 02:59 30.95668 94.37001 35216 ft 482 kts 46°
2026-04-26 02:59 31.00021 94.42940 35203 ft 481 kts 46°
2026-04-26 03:00 31.04367 94.48877 35203 ft 481 kts 46°
2026-04-26 03:00 31.08710 94.54814 35195 ft 481 kts 46°
2026-04-26 03:01 31.13047 94.60757 35171 ft 481 kts 46°
2026-04-26 03:01 31.17382 94.66711 35181 ft 481 kts 46°
2026-04-26 03:02 31.21708 94.72654 35168 ft 480 kts 46°
2026-04-26 03:02 31.26028 94.78588 35156 ft 479 kts 46°
2026-04-26 03:03 31.30346 94.84530 35160 ft 479 kts 46°
2026-04-26 03:03 31.34651 94.90479 35150 ft 479 kts 46°
2026-04-26 03:04 31.38955 94.96440 35160 ft 479 kts 46°
2026-04-26 03:04 31.43263 95.02399 35179 ft 480 kts 46°
2026-04-26 03:05 31.47567 95.08364 35194 ft 479 kts 46°
2026-04-26 03:05 31.51852 95.14313 35189 ft 477 kts 47°
2026-04-26 03:06 31.56116 95.20261 35191 ft 476 kts 46°
2026-04-26 03:06 31.60376 95.26207 35185 ft 476 kts 47°
2026-04-26 03:07 31.64644 95.32147 35190 ft 475 kts 47°
2026-04-26 03:07 31.68900 95.38086 35198 ft 476 kts 47°
2026-04-26 03:08 31.73142 95.44035 35193 ft 474 kts 47°
2026-04-26 03:08 31.77370 95.49970 35196 ft 474 kts 47°
2026-04-26 03:09 31.81597 95.55905 35192 ft 473 kts 47°
2026-04-26 03:09 31.85815 95.61838 35189 ft 472 kts 47°
2026-04-26 03:10 31.90027 95.67762 35171 ft 472 kts 47°
2026-04-26 03:10 31.94235 95.73698 35165 ft 472 kts 47°
2026-04-26 03:11 31.98433 95.79640 35148 ft 472 kts 47°
2026-04-26 03:11 32.02640 95.85590 35140 ft 473 kts 47°
2026-04-26 03:12 32.06844 95.91542 35132 ft 472 kts 47°
2026-04-26 03:12 32.11046 95.97507 35123 ft 473 kts 47°
2026-04-26 03:13 32.15249 96.03478 35119 ft 473 kts 47°
2026-04-26 03:13 32.19453 96.09467 35130 ft 474 kts 48°
2026-04-26 03:14 32.23661 96.15469 35124 ft 475 kts 48°
2026-04-26 03:14 32.27926 96.21433 35121 ft 476 kts 47°
2026-04-26 03:15 32.32206 96.27325 35117 ft 476 kts 47°
2026-04-26 03:15 32.35814 96.32308 35124 ft 476 kts 47°
2026-04-26 03:16 32.40106 96.38284 35128 ft 477 kts 47°
2026-04-26 03:16 32.44391 96.44267 35132 ft 476 kts 47°
2026-04-26 03:17 32.48676 96.50250 35144 ft 477 kts 47°
2026-04-26 03:17 32.52964 96.56245 35144 ft 477 kts 47°
2026-04-26 03:18 32.57245 96.62247 35154 ft 477 kts 47°
2026-04-26 03:18 32.61532 96.68256 35154 ft 477 kts 47°
2026-04-26 03:19 32.65810 96.74280 35169 ft 477 kts 47°
2026-04-26 03:19 32.70083 96.80308 35168 ft 477 kts 47°
2026-04-26 03:20 32.74361 96.86339 35170 ft 478 kts 48°
2026-04-26 03:20 32.78617 96.92344 35164 ft 479 kts 48°
2026-04-26 03:21 32.82906 96.98402 35164 ft 479 kts 48°
2026-04-26 03:21 32.87232 97.04428 35147 ft 479 kts 46°
2026-04-26 03:22 32.91693 97.10308 35150 ft 479 kts 45°
2026-04-26 03:22 32.96186 97.16168 35151 ft 479 kts 46°
2026-04-26 03:23 33.00644 97.22075 35137 ft 480 kts 46°
2026-04-26 03:23 33.05083 97.28017 35127 ft 480 kts 46°
2026-04-26 03:24 33.09520 97.33968 35128 ft 481 kts 46°
2026-04-26 03:24 33.13972 97.39926 35131 ft 481 kts 46°
2026-04-26 03:25 33.18417 97.45888 35130 ft 481 kts 46°
2026-04-26 03:25 33.22865 97.51857 35136 ft 481 kts 46°
2026-04-26 03:26 33.27311 97.57837 35130 ft 481 kts 46°
2026-04-26 03:26 33.31751 97.63826 35123 ft 482 kts 46°
2026-04-26 03:27 33.36197 97.69835 35106 ft 483 kts 46°
2026-04-26 03:27 33.40654 97.75851 35104 ft 483 kts 46°
2026-04-26 03:28 33.45150 97.81837 35112 ft 483 kts 46°
2026-04-26 03:28 33.49653 97.87829 35111 ft 484 kts 46°
2026-04-26 03:29 33.54147 97.93834 35098 ft 484 kts 46°
2026-04-26 03:29 33.58630 97.99867 35096 ft 485 kts 46°
2026-04-26 03:30 33.63119 98.05903 35100 ft 485 kts 46°
2026-04-26 03:30 33.67611 98.11946 35103 ft 485 kts 46°
2026-04-26 03:31 33.72093 98.17999 35107 ft 485 kts 46°
2026-04-26 03:31 33.76573 98.24050 35107 ft 485 kts 46°
2026-04-26 03:32 33.81054 98.30110 35110 ft 485 kts 46°
2026-04-26 03:32 33.85529 98.36172 35110 ft 485 kts 46°
2026-04-26 03:33 33.89989 98.42247 35107 ft 484 kts 46°
2026-04-26 03:33 33.94449 98.48316 35122 ft 484 kts 46°
2026-04-26 03:34 33.98936 98.54355 35104 ft 484 kts 45°
2026-04-26 03:34 34.03449 98.60380 35090 ft 484 kts 45°
2026-04-26 03:35 34.07955 98.66420 35080 ft 484 kts 46°
2026-04-26 03:35 34.12455 98.72479 35083 ft 485 kts 46°
2026-04-26 03:36 34.16947 98.78549 35095 ft 485 kts 46°
2026-04-26 03:36 34.21406 98.84592 35080 ft 485 kts 45°
2026-04-26 03:37 34.25904 98.90667 35076 ft 485 kts 45°
2026-04-26 03:37 34.30397 98.96746 35071 ft 485 kts 45°
2026-04-26 03:38 34.34880 99.02845 35068 ft 485 kts 46°
2026-04-26 03:38 34.39365 99.08956 35069 ft 486 kts 46°
2026-04-26 03:39 34.43856 99.15073 35099 ft 486 kts 45°
2026-04-26 03:39 34.48341 99.21197 35095 ft 486 kts 45°
2026-04-26 03:40 34.52826 99.27339 35114 ft 486 kts 45°
2026-04-26 03:40 34.57309 99.33485 35111 ft 486 kts 45°
2026-04-26 03:41 34.61788 99.39636 35118 ft 486 kts 46°
2026-04-26 03:41 34.66264 99.45788 35131 ft 486 kts 45°
2026-04-26 03:42 34.70739 99.51955 35130 ft 486 kts 45°
2026-04-26 03:42 34.75212 99.58124 35115 ft 486 kts 45°
2026-04-26 03:43 34.79716 99.64241 35103 ft 485 kts 45°
2026-04-26 03:43 34.84238 99.70349 35095 ft 486 kts 44°
2026-04-26 03:44 34.88746 99.76481 35111 ft 486 kts 45°
2026-04-26 03:44 34.93246 99.82618 35096 ft 486 kts 45°
2026-04-26 03:45 34.97734 99.88761 35092 ft 485 kts 44°
2026-04-26 03:45 35.02214 99.94910 35090 ft 485 kts 44°
2026-04-26 03:46 35.06665 100.01016 35082 ft 485 kts 44°
2026-04-26 03:47 35.13378 100.10236 35088 ft 484 kts 44°
2026-04-26 03:47 35.17868 100.16365 35080 ft 484 kts 44°
2026-04-26 03:48 35.22360 100.22485 35095 ft 483 kts 44°
2026-04-26 03:48 35.26851 100.28610 35094 ft 483 kts 44°
2026-04-26 03:49 35.31331 100.34740 35104 ft 483 kts 44°
2026-04-26 03:49 35.35803 100.40875 35098 ft 482 kts 44°
2026-04-26 03:50 35.40268 100.47013 35091 ft 482 kts 44°
2026-04-26 03:50 35.44724 100.53158 35087 ft 482 kts 44°
2026-04-26 03:51 35.49170 100.59300 35095 ft 481 kts 44°
2026-04-26 03:51 35.53613 100.65438 35109 ft 481 kts 44°
2026-04-26 03:52 35.58057 100.71584 35087 ft 481 kts 44°
2026-04-26 03:52 35.62499 100.77743 35078 ft 482 kts 44°
2026-04-26 03:53 35.66944 100.83918 35073 ft 482 kts 44°
2026-04-26 03:53 35.71402 100.90080 35077 ft 482 kts 44°
2026-04-26 03:54 35.75869 100.96250 35094 ft 483 kts 44°
2026-04-26 03:54 35.80334 101.02432 35099 ft 483 kts 44°
2026-04-26 03:55 35.84795 101.08631 35096 ft 483 kts 44°
2026-04-26 03:55 35.89251 101.14841 35095 ft 484 kts 44°
2026-04-26 03:56 35.93702 101.21060 35095 ft 484 kts 44°
2026-04-26 03:56 35.98154 101.27286 35095 ft 483 kts 44°
2026-04-26 03:57 36.02602 101.33507 35113 ft 483 kts 43°
2026-04-26 03:57 36.07101 101.39676 35113 ft 483 kts 43°
2026-04-26 03:58 36.10849 101.44797 35120 ft 483 kts 43°
2026-04-26 03:58 36.16106 101.52025 35131 ft 483 kts 43°
2026-04-26 03:59 36.20584 101.58230 35153 ft 484 kts 43°
2026-04-26 03:59 36.24307 101.63396 35157 ft 484 kts 43°
2026-04-26 04:00 36.28789 101.69604 35165 ft 483 kts 43°
2026-04-26 04:00 36.33271 101.75825 35172 ft 483 kts 43°
2026-04-26 04:01 36.37744 101.82050 35171 ft 483 kts 43°
2026-04-26 04:01 36.42211 101.88289 35182 ft 484 kts 43°
2026-04-26 04:02 36.46675 101.94540 35193 ft 484 kts 43°
2026-04-26 04:02 36.50596 102.01399 35183 ft 495 kts 60°
2026-04-26 04:03 36.52607 102.09625 35203 ft 504 kts 81°
2026-04-26 04:03 36.52744 102.18367 35194 ft 507 kts 89°
2026-04-26 04:04 36.52660 102.27135 35211 ft 507 kts 89°
2026-04-26 04:04 36.52588 102.35901 35237 ft 507 kts 89°
2026-04-26 04:05 36.52520 102.44678 35240 ft 508 kts 89°
2026-04-26 04:05 36.52436 102.53463 35234 ft 508 kts 89°
2026-04-26 04:06 36.52341 102.62248 35230 ft 508 kts 89°
2026-04-26 04:06 36.52247 102.71041 35229 ft 509 kts 89°
2026-04-26 04:07 36.52148 102.79840 35230 ft 509 kts 89°
2026-04-26 04:07 36.52046 102.88586 35228 ft 510 kts 88°
2026-04-26 04:08 36.52205 102.97386 35231 ft 509 kts 85°
2026-04-26 04:08 36.52565 103.06185 35244 ft 510 kts 85°
2026-04-26 04:09 36.52887 103.15005 35235 ft 511 kts 86°
2026-04-26 04:09 36.53118 103.23853 35236 ft 512 kts 86°
2026-04-26 04:10 36.53326 103.32707 35242 ft 513 kts 86°
2026-04-26 04:10 36.53547 103.41567 35249 ft 513 kts 86°
2026-04-26 04:11 36.53767 103.50431 35265 ft 513 kts 86°
2026-04-26 04:11 36.54726 103.59140 35258 ft 506 kts 69°
2026-04-26 04:12 36.57566 103.66994 35237 ft 493 kts 51°
2026-04-26 04:12 36.61717 103.73664 35234 ft 487 kts 44°
2026-04-26 04:13 36.65992 103.80209 35230 ft 487 kts 44°
2026-04-26 04:13 36.70261 103.86776 35244 ft 488 kts 44°
2026-04-26 04:14 36.74539 103.93369 35231 ft 489 kts 44°
2026-04-26 04:14 36.78813 103.99974 35229 ft 490 kts 44°
2026-04-26 04:15 36.83091 104.06592 35236 ft 490 kts 44°
2026-04-26 04:15 36.87409 104.13171 35253 ft 488 kts 42°
2026-04-26 04:16 36.91922 104.19492 35242 ft 487 kts 40°
2026-04-26 04:16 36.96494 104.25730 35227 ft 487 kts 40°
2026-04-26 04:17 37.00991 104.31994 35212 ft 488 kts 41°
2026-04-26 04:17 37.05484 104.38376 35218 ft 489 kts 41°
2026-04-26 04:18 37.09965 104.44776 35251 ft 488 kts 41°
2026-04-26 04:18 37.14447 104.51157 35242 ft 487 kts 40°
2026-04-26 04:19 37.18919 104.57522 35232 ft 486 kts 40°
2026-04-26 04:19 37.23387 104.63891 35223 ft 486 kts 41°
2026-04-26 04:20 37.27843 104.70270 35235 ft 486 kts 40°
2026-04-26 04:20 37.32295 104.76674 35224 ft 486 kts 40°
2026-04-26 04:21 37.36755 104.83053 35208 ft 486 kts 40°
2026-04-26 04:21 37.41230 104.89414 35200 ft 485 kts 40°
2026-04-26 04:22 37.45696 104.95783 35198 ft 485 kts 40°
2026-04-26 04:22 37.50131 105.02141 35190 ft 481 kts 40°
2026-04-26 04:23 37.54541 105.08478 35166 ft 481 kts 40°
2026-04-26 04:23 37.58914 105.14866 35160 ft 483 kts 42°
2026-04-26 04:24 37.63059 105.21576 35157 ft 486 kts 45°
2026-04-26 04:24 37.67091 105.28433 35169 ft 487 kts 45°
2026-04-26 04:25 37.71161 105.35255 35166 ft 486 kts 44°
2026-04-26 04:25 37.75278 105.42015 35148 ft 485 kts 44°
2026-04-26 04:26 37.79398 105.48778 35142 ft 486 kts 44°
2026-04-26 04:26 37.83503 105.55567 35126 ft 486 kts 44°
2026-04-26 04:27 37.87609 105.62347 35128 ft 486 kts 44°
2026-04-26 04:27 37.91721 105.69133 35116 ft 486 kts 44°
2026-04-26 04:28 37.95831 105.75926 35109 ft 486 kts 44°
2026-04-26 04:28 37.99931 105.82728 35097 ft 486 kts 44°
2026-04-26 04:29 38.04026 105.89549 35122 ft 486 kts 44°
2026-04-26 04:29 38.08118 105.96373 35104 ft 486 kts 45°
2026-04-26 04:30 38.12213 106.03209 35110 ft 486 kts 45°
2026-04-26 04:30 38.16299 106.10053 35097 ft 486 kts 45°
2026-04-26 04:31 38.20388 106.16912 35090 ft 487 kts 45°
2026-04-26 04:31 38.24475 106.23776 35109 ft 487 kts 45°
2026-04-26 04:32 38.28553 106.30652 35098 ft 487 kts 45°
2026-04-26 04:32 38.32613 106.37552 35100 ft 489 kts 47°
2026-04-26 04:33 38.35711 106.45413 35086 ft 507 kts 66°
2026-04-26 04:33 38.37731 106.54039 35088 ft 508 kts 68°
2026-04-26 04:34 38.39907 106.62582 35110 ft 502 kts 59°
2026-04-26 04:34 38.43435 106.70035 35097 ft 483 kts 42°
2026-04-26 04:35 38.47840 106.76421 35100 ft 479 kts 40°
2026-04-26 04:35 38.52241 106.82811 35095 ft 479 kts 40°
2026-04-26 04:36 38.56632 106.89216 35089 ft 479 kts 40°
2026-04-26 04:36 38.60997 106.95584 35103 ft 479 kts 40°
2026-04-26 04:37 38.65391 107.01994 35093 ft 479 kts 40°
2026-04-26 04:37 38.69782 107.08406 35089 ft 479 kts 40°
2026-04-26 04:38 38.74159 107.14832 35088 ft 479 kts 40°
2026-04-26 04:38 38.78537 107.21269 35096 ft 479 kts 39°
2026-04-26 04:39 38.82917 107.27713 35084 ft 479 kts 39°
2026-04-26 04:39 38.87292 107.34175 35075 ft 480 kts 39°
2026-04-26 04:40 38.91667 107.40642 35076 ft 480 kts 40°
2026-04-26 04:40 38.96040 107.47125 35095 ft 480 kts 40°
2026-04-26 04:41 39.00408 107.53619 35086 ft 480 kts 40°
2026-04-26 04:41 39.04779 107.60126 35078 ft 481 kts 40°
2026-04-26 04:42 39.09151 107.66629 35077 ft 481 kts 40°
2026-04-26 04:42 39.13522 107.73147 35091 ft 481 kts 40°
2026-04-26 04:43 39.17885 107.79689 35087 ft 481 kts 40°
2026-04-26 04:43 39.22247 107.86242 35085 ft 481 kts 40°
2026-04-26 04:44 39.26606 107.92796 35087 ft 482 kts 40°
2026-04-26 04:44 39.30964 107.99364 35112 ft 482 kts 40°
2026-04-26 04:45 39.35321 108.05937 35096 ft 482 kts 40°
2026-04-26 04:45 39.38938 108.11415 35091 ft 482 kts 40°
2026-04-26 04:46 39.43294 108.18012 35071 ft 482 kts 40°
2026-04-26 04:46 39.47641 108.24621 35101 ft 482 kts 40°
2026-04-26 04:47 39.51985 108.31242 35097 ft 482 kts 40°
2026-04-26 04:47 39.56197 108.38058 35088 ft 487 kts 45°
2026-04-26 04:48 39.62053 108.48899 35096 ft 490 kts 46°
2026-04-26 04:48 39.65950 108.56150 35088 ft 489 kts 46°
2026-04-26 04:49 39.69909 108.63330 35080 ft 489 kts 45°
2026-04-26 04:49 39.73889 108.70483 35082 ft 489 kts 45°
2026-04-26 04:50 39.77851 108.77673 35079 ft 489 kts 45°
2026-04-26 04:50 39.81798 108.84881 35102 ft 490 kts 45°
2026-04-26 04:51 39.85744 108.92124 35085 ft 491 kts 45°
2026-04-26 04:51 39.89690 108.99379 35081 ft 491 kts 45°
2026-04-26 04:52 39.93613 109.06602 35083 ft 492 kts 45°
2026-04-26 04:52 39.97565 109.13883 35119 ft 492 kts 45°
2026-04-26 04:53 40.01517 109.21178 35106 ft 492 kts 45°
2026-04-26 04:53 40.05468 109.28481 35101 ft 493 kts 45°
2026-04-26 04:54 40.09413 109.35804 35091 ft 493 kts 45°
2026-04-26 04:54 40.13351 109.43144 35126 ft 494 kts 45°
2026-04-26 04:55 40.17287 109.50496 35119 ft 493 kts 45°
2026-04-26 04:55 40.21222 109.57851 35115 ft 493 kts 45°
2026-04-26 04:56 40.25147 109.65210 35107 ft 493 kts 46°
2026-04-26 04:56 40.29069 109.72582 35140 ft 493 kts 46°
2026-04-26 04:57 40.33018 109.80008 35127 ft 493 kts 46°
2026-04-26 04:57 40.36910 109.87344 35114 ft 493 kts 46°
2026-04-26 04:58 40.40822 109.94744 35107 ft 494 kts 46°
2026-04-26 04:58 40.44638 110.02261 35145 ft 497 kts 49°
2026-04-26 04:59 40.48183 110.10093 35132 ft 499 kts 51°
2026-04-26 04:59 40.51653 110.17994 35111 ft 499 kts 51°
2026-04-26 05:00 40.55179 110.25835 35100 ft 498 kts 50°
2026-04-26 05:00 40.58745 110.33630 35140 ft 497 kts 50°
2026-04-26 05:01 40.62210 110.41525 35124 ft 504 kts 58°
2026-04-26 05:01 40.64158 110.50521 35119 ft 521 kts 78°
2026-04-26 05:02 40.64267 110.60120 35106 ft 526 kts 87°
2026-04-26 05:02 40.64177 110.69748 35098 ft 526 kts 87°
2026-04-26 05:03 40.64089 110.79386 35096 ft 526 kts 87°
2026-04-26 05:03 40.63987 110.89026 35106 ft 527 kts 87°
2026-04-26 05:04 40.63877 110.98666 35100 ft 527 kts 87°
2026-04-26 05:04 40.63758 111.08312 35102 ft 527 kts 87°
2026-04-26 05:05 40.63623 111.17955 35143 ft 526 kts 87°
2026-04-26 05:05 40.63478 111.27581 35135 ft 525 kts 87°
2026-04-26 05:06 40.63330 111.37187 35129 ft 525 kts 87°
2026-04-26 05:06 40.63185 111.46782 35122 ft 524 kts 87°
2026-04-26 05:07 40.63031 111.56314 35117 ft 524 kts 88°
2026-04-26 05:07 40.62855 111.65899 35114 ft 524 kts 88°
2026-04-26 05:08 40.62668 111.75486 35108 ft 524 kts 88°
2026-04-26 05:08 40.62482 111.85137 35124 ft 524 kts 88°
2026-04-26 05:09 40.62308 111.94652 35118 ft 523 kts 88°
2026-04-26 05:09 40.62124 112.04228 35111 ft 523 kts 88°
2026-04-26 05:10 40.61904 112.13804 35115 ft 523 kts 88°
2026-04-26 05:10 40.61679 112.23373 35118 ft 523 kts 88°
2026-04-26 05:11 40.61454 112.32939 35144 ft 522 kts 89°
2026-04-26 05:11 40.61221 112.42485 35138 ft 521 kts 88°
2026-04-26 05:12 40.60962 112.52009 35130 ft 521 kts 90°
2026-04-26 05:12 40.60469 112.61525 35128 ft 521 kts 92°
2026-04-26 05:13 40.59836 112.71025 35119 ft 521 kts 92°
2026-04-26 05:13 40.59124 112.80524 35122 ft 522 kts 94°
2026-04-26 05:14 40.58373 112.90009 35122 ft 521 kts 92°
2026-04-26 05:14 40.57749 112.99491 35116 ft 520 kts 92°
2026-04-26 05:15 40.57161 113.08964 35108 ft 520 kts 92°
2026-04-26 05:15 40.56537 113.18426 35108 ft 519 kts 92°
2026-04-26 05:16 40.55872 113.27880 35103 ft 519 kts 93°
2026-04-26 05:16 40.55207 113.37267 34903 ft 520 kts 92°
2026-04-26 05:17 40.54876 113.41995 34614 ft 519 kts 92°
2026-04-26 05:17 40.54541 113.46777 34332 ft 518 kts 93°
2026-04-26 05:17 40.54214 113.51433 34053 ft 518 kts 93°
2026-04-26 05:17 40.53878 113.56146 33732 ft 518 kts 93°
2026-04-26 05:18 40.53536 113.60855 33406 ft 517 kts 93°
2026-04-26 05:18 40.53192 113.65558 33099 ft 516 kts 94°
2026-04-26 05:18 40.52848 113.70250 32789 ft 516 kts 94°
2026-04-26 05:18 40.52505 113.74933 32473 ft 515 kts 94°
2026-04-26 05:19 40.52166 113.79617 32159 ft 514 kts 94°
2026-04-26 05:19 40.51824 113.84284 31849 ft 513 kts 94°
2026-04-26 05:19 40.51477 113.88949 31541 ft 513 kts 94°
2026-04-26 05:19 40.51128 113.93604 31234 ft 512 kts 94°
2026-04-26 05:20 40.50776 113.98258 30933 ft 511 kts 95°
2026-04-26 05:20 40.50459 114.02903 30630 ft 510 kts 93°
2026-04-26 05:20 40.50221 114.07556 30339 ft 510 kts 92°
2026-04-26 05:20 40.50043 114.12207 30044 ft 510 kts 92°
2026-04-26 05:21 40.49897 114.16863 29695 ft 510 kts 91°
2026-04-26 05:21 40.49749 114.21516 29355 ft 510 kts 92°
2026-04-26 05:21 40.49579 114.26169 29018 ft 510 kts 92°
2026-04-26 05:21 40.49390 114.30823 28685 ft 510 kts 92°
2026-04-26 05:22 40.49183 114.35472 28348 ft 509 kts 92°
2026-04-26 05:22 40.48966 114.40096 28034 ft 506 kts 92°
2026-04-26 05:22 40.48744 114.44702 27712 ft 504 kts 92°
2026-04-26 05:22 40.48525 114.49286 27395 ft 502 kts 92°
2026-04-26 05:23 40.48310 114.53845 27078 ft 499 kts 92°
2026-04-26 05:23 40.48098 114.58381 26768 ft 496 kts 92°
2026-04-26 05:23 40.47890 114.62885 26461 ft 493 kts 92°
2026-04-26 05:23 40.47681 114.67364 26157 ft 490 kts 92°
2026-04-26 05:24 40.47472 114.71819 25857 ft 487 kts 92°
2026-04-26 05:24 40.47264 114.76246 25559 ft 484 kts 92°
2026-04-26 05:24 40.47056 114.80649 25259 ft 482 kts 92°
2026-04-26 05:24 40.46851 114.85028 24965 ft 479 kts 92°
2026-04-26 05:25 40.46640 114.89378 24682 ft 477 kts 92°
2026-04-26 05:25 40.46425 114.93708 24397 ft 474 kts 92°
2026-04-26 05:25 40.46212 114.98014 24115 ft 471 kts 92°
2026-04-26 05:25 40.45999 115.02295 23838 ft 468 kts 92°
2026-04-26 05:26 40.45786 115.06539 23557 ft 464 kts 92°
2026-04-26 05:26 40.45570 115.10754 23232 ft 461 kts 92°
2026-04-26 05:26 40.45353 115.14941 22890 ft 458 kts 92°
2026-04-26 05:26 40.45138 115.19103 22568 ft 456 kts 92°
2026-04-26 05:27 40.44923 115.23246 22239 ft 454 kts 92°
2026-04-26 05:27 40.44710 115.27369 21920 ft 452 kts 92°
2026-04-26 05:27 40.44497 115.31473 21604 ft 449 kts 92°
2026-04-26 05:27 40.44286 115.35497 21297 ft 446 kts 92°
2026-04-26 05:28 40.44072 115.39544 20987 ft 443 kts 92°
2026-04-26 05:28 40.43857 115.43576 20680 ft 441 kts 92°
2026-04-26 05:28 40.43640 115.47578 20375 ft 439 kts 92°
2026-04-26 05:28 40.43421 115.51572 20073 ft 437 kts 92°
2026-04-26 05:29 40.43238 115.55540 19774 ft 435 kts 90°
2026-04-26 05:29 40.43152 115.59496 19481 ft 433 kts 89°
2026-04-26 05:29 40.43135 115.63442 19189 ft 431 kts 88°
2026-04-26 05:29 40.43149 115.67366 18897 ft 429 kts 87°
2026-04-26 05:30 40.43163 115.71273 18609 ft 427 kts 88°
2026-04-26 05:30 40.43162 115.75162 18329 ft 425 kts 88°
2026-04-26 05:30 40.43142 115.79041 18013 ft 424 kts 88°
2026-04-26 05:30 40.43109 115.82902 17689 ft 422 kts 89°
2026-04-26 05:31 40.43082 115.85448 17491 ft 421 kts 89°
2026-04-26 05:31 40.43037 115.89276 17173 ft 419 kts 89°
2026-04-26 05:31 40.42976 115.94367 16750 ft 416 kts 89°
2026-04-26 05:31 40.42931 115.98152 16440 ft 414 kts 89°
2026-04-26 05:32 40.42892 116.01921 16134 ft 412 kts 89°
2026-04-26 05:32 40.42856 116.05673 15830 ft 410 kts 89°
2026-04-26 05:32 40.42829 116.08144 15630 ft 409 kts 89°
2026-04-26 05:32 40.42786 116.11864 15333 ft 407 kts 89°
2026-04-26 05:33 40.42741 116.15568 15031 ft 404 kts 89°
2026-04-26 05:33 40.42693 116.19246 14739 ft 403 kts 90°
2026-04-26 05:33 40.42644 116.22909 14284 ft 400 kts 90°
2026-04-26 05:33 40.42594 116.26533 13809 ft 392 kts 90°
2026-04-26 05:34 40.42546 116.30069 13287 ft 383 kts 90°
2026-04-26 05:34 40.42484 116.33524 12764 ft 374 kts 90°
2026-04-26 05:34 40.42418 116.36878 12250 ft 362 kts 90°
2026-04-26 05:34 40.42403 116.40118 11745 ft 348 kts 82°
2026-04-26 05:35 40.43026 116.43101 11250 ft 333 kts 64°
2026-04-26 05:35 40.44034 116.45783 10762 ft 322 kts 55°
2026-04-26 05:35 40.45257 116.48174 10424 ft 308 kts 52°
2026-04-26 05:35 40.46455 116.50425 10176 ft 293 kts 52°
2026-04-26 05:36 40.47599 116.52559 9938 ft 279 kts 52°
2026-04-26 05:36 40.48443 116.54799 9566 ft 275 kts 75°
2026-04-26 05:36 40.48438 116.57292 9048 ft 277 kts 103°
2026-04-26 05:36 40.47547 116.59505 8518 ft 276 kts 132°
2026-04-26 05:37 40.45977 116.60913 8013 ft 275 kts 161°
2026-04-26 05:37 40.44106 116.61199 7514 ft 271 kts 186°
2026-04-26 05:37 40.42241 116.60811 7026 ft 272 kts 191°
2026-04-26 05:37 40.40406 116.60187 6540 ft 274 kts 200°
2026-04-26 05:38 40.38623 116.59302 6036 ft 274 kts 202°
2026-04-26 05:38 40.36857 116.58385 5530 ft 272 kts 202°
2026-04-26 05:38 40.35118 116.57468 5194 ft 265 kts 202°
2026-04-26 05:38 40.33430 116.56562 4898 ft 259 kts 202°
2026-04-26 05:39 40.31711 116.55971 4534 ft 253 kts 181°
2026-04-26 05:39 40.29974 116.56150 4194 ft 248 kts 171°
2026-04-26 05:39 40.28280 116.56426 3868 ft 240 kts 171°
2026-04-26 05:39 40.26669 116.56684 3553 ft 226 kts 172°
2026-04-26 05:40 40.25149 116.56924 3274 ft 216 kts 171°
2026-04-26 05:40 40.23690 116.57155 2995 ft 210 kts 171°
2026-04-26 05:40 40.22271 116.57379 2718 ft 201 kts 171°
2026-04-26 05:40 40.20910 116.57594 2466 ft 193 kts 172°
2026-04-26 05:41 40.19622 116.57798 2204 ft 185 kts 171°
2026-04-26 05:41 40.18393 116.57991 1972 ft 172 kts 171°
2026-04-26 05:41 40.17236 116.58173 1768 ft 161 kts 170°
2026-04-26 05:41 40.16184 116.58339 1544 ft 145 kts 170°
2026-04-26 05:42 40.15598 116.58431 1424 ft 138 kts 169°
2026-04-26 05:42 40.14660 116.58579 1255 ft 135 kts 171°
2026-04-26 05:42 40.13737 116.58725 1075 ft 133 kts 170°
2026-04-26 05:42 40.12814 116.58875 925 ft 134 kts 170°
2026-04-26 05:43 40.11895 116.59016 764 ft 131 kts 169°
2026-04-26 05:43 40.10983 116.59161 579 ft 132 kts 169°
2026-04-26 05:43 40.10076 116.59307 412 ft 132 kts 169°
2026-04-26 05:43 40.09177 116.59446 222 ft 129 kts 170°
2026-04-26 05:44 40.08317 116.59584 121 ft 112 kts 172°
2026-04-26 05:44 40.07720 116.59675 121 ft 62 kts 173°
2026-04-26 05:44 40.07444 116.59758 121 ft 33 kts 152°
2026-04-26 05:44 40.07297 116.59888 122 ft 24 kts 142°
2026-04-26 05:45 40.07228 116.59972 120 ft 10 kts 110°
2026-04-26 05:45 40.07230 116.60068 123 ft 11 kts 91°
2026-04-26 05:45 40.07166 116.60112 122 ft 12 kts 174°
2026-04-26 05:45 40.07079 116.60126 122 ft 14 kts 173°
2026-04-26 05:46 40.06978 116.60141 122 ft 15 kts 173°
2026-04-26 05:46 40.06869 116.60159 122 ft 17 kts 173°
2026-04-26 05:46 40.06749 116.60177 122 ft 18 kts 173°
2026-04-26 05:46 40.06622 116.60197 123 ft 19 kts 173°
2026-04-26 05:47 40.06486 116.60218 123 ft 20 kts 173°
2026-04-26 05:47 40.06396 116.60232 120 ft 13 kts 173°
2026-04-26 05:47 40.06301 116.60247 119 ft 15 kts 174°
2026-04-26 05:47 40.06221 116.60260 124 ft 8 kts 172°
2026-04-26 05:48 40.06187 116.60320 122 ft 10 kts 93°
2026-04-26 05:48 40.06190 116.60405 124 ft 9 kts 101°
2026-04-26 05:48 40.06133 116.60444 121 ft 11 kts 173°
2026-04-26 05:48 40.06053 116.60457 121 ft 12 kts 173°
2026-04-26 05:49 40.05961 116.60471 121 ft 14 kts 173°
2026-04-26 05:49 40.05750 116.60504 122 ft 17 kts 173°
2026-04-26 05:49 40.05670 116.60545 122 ft 11 kts 109°
2026-04-26 05:50 40.05656 116.60622 124 ft 8 kts 96°
2026-04-26 05:50 40.05658 116.60698 124 ft 9 kts 81°
2026-04-26 05:50 40.05672 116.60748 120 ft 1 kts 62°
2026-04-26 05:50 40.05676 116.60758 123 ft 1 kts 62°
2026-04-26 05:51 40.05676 116.60759 123 ft 0 kts 62°